When you browse on this site, cookies collect data to enhance your experience and personalize the content and advertising you see.
Visit our Privacy Policy to learn more. By continuing to use the site, you agree to this use of cookies and data.
  • în România
  • Lista ţărilor
  • Pe 7 zile
  • Temperatura apei
  • Meteo pe hartă
  • Widget-uri
  • user-avatar
    Intrare

    Meteo pe oră la Szombathely

    Astăzi, 15 Noiembrie, Vineri

    Timp Temperatura Precipitaţii Vânt Presiune Umiditate
    00:00 +4°C° 0 mm 2 m/s 738 mmHg 92%
    01:00 +4°C° 0 mm 2 m/s 739 mmHg 93%
    02:00 +4°C° 0 mm 2 m/s 738 mmHg 94%
    03:00 +4°C° 0 mm 2 m/s 738 mmHg 94%
    04:00 +4°C° 0 mm 2 m/s 738 mmHg 94%
    05:00 +4°C° 0 mm 2 m/s 738 mmHg 95%
    06:00 +4°C° 0 mm 2 m/s 738 mmHg 95%
    07:00 +4°C° 0 mm 2 m/s 738 mmHg 97%
    08:00 +5°C° 0 mm 2 m/s 738 mmHg 94%
    09:00 +5°C° 0 mm 3 m/s 738 mmHg 92%
    10:00 +8°C° 0 mm 3 m/s 738 mmHg 90%
    11:00 +8°C° 0 mm 3 m/s 738 mmHg 88%
    12:00 +9°C° 0 mm 3 m/s 738 mmHg 86%
    13:00 +10°C° 0 mm 4 m/s 738 mmHg 84%
    14:00 +10°C° 0 mm 3 m/s 737 mmHg 86%
    15:00 +10°C° 0 mm 3 m/s 737 mmHg 87%
    16:00 +10°C° 0 mm 3 m/s 737 mmHg 89%
    17:00 +10°C° 0 mm 3 m/s 737 mmHg 89%
    18:00 +10°C° 0 mm 3 m/s 737 mmHg 89%
    19:00 +10°C° 0 mm 3 m/s 737 mmHg 88%
    20:00 +10°C° 0 mm 4 m/s 737 mmHg 86%
    21:00 +10°C° 0 mm 4 m/s 737 mmHg 84%
    22:00 +10°C° 0 mm 4 m/s 737 mmHg 82%
    23:00 +10°C° 0 mm 5 m/s 737 mmHg 80%

    Mâine, 16 Noiembrie, Sâmbătă

    Timp Temperatura Precipitaţii Vânt Presiune Umiditate
    00:00 +10°C° 0 mm 5 m/s 737 mmHg 79%
    01:00 +11°C° 0 mm 6 m/s 737 mmHg 77%
    02:00 +11°C° 0.1 mm 6 m/s 737 mmHg 79%
    03:00 +10°C° 0.1 mm 6 m/s 737 mmHg 82%
    04:00 +10°C° 0.1 mm 6 m/s 737 mmHg 85%
    05:00 +10°C° 0.3 mm 6 m/s 737 mmHg 86%
    06:00 +9°C° 0.3 mm 5 m/s 738 mmHg 88%
    07:00 +10°C° 0.3 mm 4 m/s 738 mmHg 89%
    08:00 +10°C° 0 mm 4 m/s 739 mmHg 86%
    09:00 +9°C° 0 mm 5 m/s 739 mmHg 83%
    10:00 +9°C° 0 mm 5 m/s 740 mmHg 79%
    11:00 +10°C° 0 mm 5 m/s 740 mmHg 78%
    12:00 +10°C° 0 mm 5 m/s 740 mmHg 77%
    13:00 +10°C° 0 mm 5 m/s 741 mmHg 76%
    14:00 +10°C° 0 mm 5 m/s 741 mmHg 78%
    15:00 +10°C° 0 mm 4 m/s 741 mmHg 80%
    16:00 +10°C° 0 mm 3 m/s 741 mmHg 82%
    17:00 +10°C° 0 mm 3 m/s 741 mmHg 84%
    18:00 +10°C° 0 mm 2 m/s 741 mmHg 85%
    19:00 +9°C° 0 mm 2 m/s 742 mmHg 87%
    20:00 +10°C° 0 mm 1 m/s 742 mmHg 87%
    21:00 +10°C° 0 mm 1 m/s 742 mmHg 88%
    22:00 +10°C° 0 mm 1 m/s 742 mmHg 89%
    23:00 +9°C° 0 mm 0 m/s 741 mmHg 89%

    Poimâine, 17 Noiembrie, Duminică

    Timp Temperatura Precipitaţii Vânt Presiune Umiditate
    00:00 +9°C° 0 mm 0 m/s 741 mmHg 89%
    01:00 +9°C° 0 mm 0 m/s 741 mmHg 89%
    02:00 +9°C° 0 mm 1 m/s 741 mmHg 89%
    03:00 +9°C° 0 mm 1 m/s 741 mmHg 90%
    04:00 +9°C° 0 mm 1 m/s 740 mmHg 90%
    05:00 +9°C° 0 mm 1 m/s 740 mmHg 91%
    06:00 +9°C° 0 mm 1 m/s 740 mmHg 92%
    07:00 +9°C° 0 mm 1 m/s 740 mmHg 93%
    08:00 +10°C° 0 mm 1 m/s 740 mmHg 91%
    09:00 +10°C° 0 mm 2 m/s 740 mmHg 89%
    10:00 +12°C° 0 mm 2 m/s 740 mmHg 86%
    11:00 +11°C° 0 mm 3 m/s 740 mmHg 84%
    12:00 +12°C° 0 mm 3 m/s 740 mmHg 82%
    13:00 +13°C° 0 mm 4 m/s 739 mmHg 80%
    14:00 +12°C° 0 mm 3 m/s 739 mmHg 82%
    15:00 +12°C° 0 mm 3 m/s 739 mmHg 83%
    16:00 +13°C° 0 mm 2 m/s 738 mmHg 84%
    17:00 +11°C° 0 mm 3 m/s 738 mmHg 84%
    18:00 +11°C° 0 mm 3 m/s 738 mmHg 83%
    19:00 +11°C° 0 mm 4 m/s 737 mmHg 82%
    20:00 +11°C° 0 mm 3 m/s 737 mmHg 84%
    21:00 +10°C° 0 mm 3 m/s 737 mmHg 85%
    22:00 +10°C° 0 mm 3 m/s 737 mmHg 86%
    23:00 +10°C° 0 mm 2 m/s 737 mmHg 88%

    18 Noiembrie, Luni

    Timp Temperatura Precipitaţii Vânt Presiune Umiditate
    00:00 +10°C° 0 mm 2 m/s 736 mmHg 89%
    01:00 +10°C° 0 mm 2 m/s 736 mmHg 90%
    02:00 +10°C° 0.7 mm 2 m/s 736 mmHg 91%
    03:00 +10°C° 0.7 mm 3 m/s 735 mmHg 92%
    04:00 +10°C° 0.7 mm 3 m/s 735 mmHg 93%
    05:00 +10°C° 0.7 mm 3 m/s 735 mmHg 93%
    06:00 +10°C° 0.7 mm 4 m/s 736 mmHg 93%
    07:00 +10°C° 0.7 mm 4 m/s 736 mmHg 93%
    08:00 +9°C° 0 mm 5 m/s 736 mmHg 86%
    09:00 +10°C° 0 mm 6 m/s 737 mmHg 79%
    10:00 +10°C° 0 mm 7 m/s 737 mmHg 72%
    11:00 +11°C° 0 mm 7 m/s 738 mmHg 69%
    12:00 +11°C° 0 mm 7 m/s 738 mmHg 67%
    13:00 +12°C° 0 mm 7 m/s 738 mmHg 64%
    14:00 +11°C° 0 mm 6 m/s 739 mmHg 68%
    15:00 +10°C° 0 mm 6 m/s 739 mmHg 71%
    16:00 +10°C° 0 mm 5 m/s 739 mmHg 74%
    17:00 +9°C° 0 mm 5 m/s 739 mmHg 77%
    18:00 +10°C° 0 mm 4 m/s 740 mmHg 81%
    19:00 +8°C° 0 mm 4 m/s 740 mmHg 84%
    20:00 +9°C° 0 mm 3 m/s 741 mmHg 85%
    21:00 +8°C° 0 mm 3 m/s 741 mmHg 87%
    22:00 +8°C° 0 mm 3 m/s 741 mmHg 88%
    23:00 +8°C° 0 mm 3 m/s 741 mmHg 87%

    19 Noiembrie, Marţi

    Timp Temperatura Precipitaţii Vânt Presiune Umiditate
    00:00 +8°C° 0 mm 3 m/s 741 mmHg 85%
    01:00 +8°C° 0 mm 3 m/s 742 mmHg 84%
    02:00 +7°C° 0 mm 3 m/s 741 mmHg 85%
    03:00 +7°C° 0 mm 2 m/s 741 mmHg 87%
    04:00 +7°C° 0 mm 2 m/s 741 mmHg 89%
    05:00 +7°C° 0 mm 2 m/s 741 mmHg 89%
    06:00 +8°C° 0 mm 2 m/s 741 mmHg 89%
    07:00 +8°C° 0 mm 2 m/s 742 mmHg 89%
    08:00 +9°C° 0 mm 2 m/s 742 mmHg 86%
    09:00 +10°C° 0 mm 2 m/s 741 mmHg 83%
    10:00 +10°C° 0 mm 2 m/s 741 mmHg 80%
    11:00 +12°C° 0 mm 2 m/s 741 mmHg 78%
    12:00 +12°C° 0 mm 2 m/s 740 mmHg 76%
    13:00 +13°C° 0 mm 2 m/s 740 mmHg 74%
    14:00 +12°C° 0 mm 2 m/s 739 mmHg 75%
    15:00 +11°C° 0 mm 3 m/s 739 mmHg 75%
    16:00 +11°C° 0 mm 3 m/s 739 mmHg 76%
    17:00 +11°C° 0 mm 3 m/s 739 mmHg 76%
    18:00 +11°C° 0 mm 3 m/s 739 mmHg 76%
    19:00 +10°C° 0 mm 3 m/s 739 mmHg 76%
    20:00 +10°C° 0 mm 2 m/s 739 mmHg 77%
    21:00 +10°C° 0 mm 2 m/s 739 mmHg 78%
    22:00 +10°C° 0 mm 2 m/s 739 mmHg 79%
    23:00 +11°C° 0.1 mm 1 m/s 739 mmHg 80%

    20 Noiembrie, Miercuri

    Timp Temperatura Precipitaţii Vânt Presiune Umiditate
    00:00 +11°C° 0.1 mm 1 m/s 739 mmHg 82%
    01:00 +11°C° 0.1 mm 1 m/s 739 mmHg 83%
    02:00 +11°C° 0.1 mm 1 m/s 739 mmHg 85%
    03:00 +10°C° 0.1 mm 1 m/s 739 mmHg 86%
    04:00 +10°C° 0.1 mm 1 m/s 740 mmHg 88%
    05:00 +9°C° 0.4 mm 2 m/s 740 mmHg 90%
    06:00 +9°C° 0.4 mm 2 m/s 740 mmHg 93%
    07:00 +9°C° 0.4 mm 2 m/s 740 mmHg 95%
    08:00 +8°C° 0 mm 2 m/s 741 mmHg 93%
    09:00 +8°C° 0 mm 2 m/s 741 mmHg 90%
    10:00 +8°C° 0 mm 2 m/s 741 mmHg 88%
    11:00 +8°C° 0 mm 2 m/s 741 mmHg 87%
    12:00 +8°C° 0 mm 2 m/s 741 mmHg 86%
    13:00 +9°C° 0 mm 2 m/s 741 mmHg 84%
    14:00 +8°C° 0 mm 2 m/s 742 mmHg 85%
    15:00 +9°C° 0 mm 1 m/s 742 mmHg 87%
    16:00 +9°C° 0 mm 1 m/s 742 mmHg 88%
    17:00 +9°C° 0 mm 1 m/s 742 mmHg 88%
    18:00 +9°C° 0 mm 1 m/s 742 mmHg 88%
    19:00 +8°C° 0 mm 1 m/s 742 mmHg 88%
    20:00 +8°C° 0 mm 1 m/s 742 mmHg 89%
    21:00 +8°C° 0 mm 1 m/s 742 mmHg 89%
    22:00 +7°C° 0 mm 1 m/s 743 mmHg 90%
    23:00 +7°C° 0 mm 1 m/s 742 mmHg 91%
    Arată mai mult